Regional Weather Roundup
Issued by NWS

Home | Current Version | Previous Version | Text Only | Print | Product List | Glossary Off
Versions: 1 2 3 4 5 6 7 8 9 10 11 12 13 14 15 16 17 18 19 20 21 22 23 24 25 26 27 28 29 30 31 32 33 34 35 36 37 38 39 40 41 42 43 44 45 46 47 48 49 50

000
ASUS43 KLMK 201810
RWRKY
KENTUCKY REGIONAL WEATHER ROUNDUP
NATIONAL WEATHER SERVICE LOUISVILLE KY
200 PM EDT MON APR 20 2015

NOTE "FAIR" INDICATES FEW OR NO CLOUDS BELOW 12,000 FEET
WITH NO SIGNIFICANT WEATHER AND/OR OBSTRUCTIONS TO VISIBILITY.

KYZ001>023-026-027-061>063-070>075-201900-
WESTERN AND SOUTH CENTRAL KENTUCKY

CITY           SKY/WX    TMP DP  RH WIND       PRES   REMARKS
PADUCAH        MOSUNNY   62  40  44 W14G21    29.73R
HENDERSON      PTSUNNY   57  43  58 W14G26    29.69S
OWENSBORO      PTSUNNY   60  47  62 W12G20    29.69S
HOPKINSVILLE   PTSUNNY   59  49  67 W13       29.72S
BOWLING GREEN  CLOUDY    58  52  80 SW7       29.70R
GLASGOW        RAIN      54  54  99 W8        29.70R
$$

KYZ024-025-028>034-038-045-046-053-201900-
NORTH CENTRAL KENTUCKY

CITY           SKY/WX    TMP DP  RH WIND       PRES   REMARKS
LOUISVILLE/SDF CLOUDY    59  46  62 W18       29.64R
LOUISVILLE/LOU CLOUDY    58  46  64 W14       29.64R
FORT KNOX      CLOUDY    54  48  82 W21G31    29.65R
$$

KYZ035>037-039>044-047>052-055>060-089>105-201900-
NORTHEAST KENTUCKY

CITY           SKY/WX    TMP DP  RH WIND       PRES   REMARKS
LEXINGTON      LGT RAIN  57  52  83 W12G23    29.63R
COVINGTON      CLOUDY    57  48  72 W22G29    29.57R
FRANKFORT      CLOUDY    60  50  69 W9G18     29.60S
$$

KYZ054-064>069-076>088-106>120-201900-
SOUTHEAST KENTUCKY

CITY           SKY/WX    TMP DP  RH WIND       PRES   REMARKS
JACKSON        CLOUDY    66  50  56 SW10G21   29.63S
LONDON         CLOUDY    68  46  45 SW18G26   29.66R
SOMERSET       DRIZZLE   59  52  77 W12G18    29.69R
MIDDLESBORO    PTSUNNY   69  50  50 S12G20    29.68R
MONTICELLO     PTCLDY    64  56  75 W14G20    29.71R
$$



USA.gov is the U.S. government's official web portal to all federal, state and local government web resources and services.